Year,Month,Day,Hour,Minute,Value (Times are PST for temperature in C)
2021,01,22,00,00,4.60
2021,01,22,00,01,4.60
2021,01,22,00,02,4.60
2021,01,22,00,03,4.60
2021,01,22,00,04,4.60
2021,01,22,00,05,4.60
2021,01,22,00,06,4.60
2021,01,22,00,07,4.60
2021,01,22,00,08,4.60
2021,01,22,00,09,4.60
2021,01,22,00,10,4.60
2021,01,22,00,11,4.50
2021,01,22,00,12,4.50
2021,01,22,00,13,4.50
2021,01,22,00,14,4.40
2021,01,22,00,15,4.40
2021,01,22,00,16,4.40
2021,01,22,00,17,4.40
2021,01,22,00,18,4.30
2021,01,22,00,19,4.30
2021,01,22,00,20,4.30
2021,01,22,00,21,4.30
2021,01,22,00,22,4.30
2021,01,22,00,23,4.30
2021,01,22,00,24,4.30
2021,01,22,00,25,4.30
2021,01,22,00,26,4.30
2021,01,22,00,27,4.30
2021,01,22,00,28,4.30
2021,01,22,00,29,4.30
2021,01,22,00,30,4.40
2021,01,22,00,31,4.40
2021,01,22,00,32,4.40
2021,01,22,00,33,4.40
2021,01,22,00,34,4.40
2021,01,22,00,35,4.40
2021,01,22,00,36,4.40
2021,01,22,00,37,4.40
2021,01,22,00,38,4.40
2021,01,22,00,39,4.40
2021,01,22,00,40,4.40
2021,01,22,00,41,4.40
2021,01,22,00,42,4.40
2021,01,22,00,43,4.40
2021,01,22,00,44,4.40
2021,01,22,00,45,4.30
2021,01,22,00,46,4.40
2021,01,22,00,47,4.40
2021,01,22,00,48,4.40
2021,01,22,00,49,4.40
2021,01,22,00,50,4.40
2021,01,22,00,51,4.30
2021,01,22,00,52,4.40
2021,01,22,00,53,4.30
2021,01,22,00,54,4.30
2021,01,22,00,55,4.30
2021,01,22,00,56,4.30
2021,01,22,00,57,4.30
2021,01,22,00,58,4.30
2021,01,22,00,59,4.30
2021,01,22,01,00,4.30
2021,01,22,01,01,4.30
2021,01,22,01,02,4.30
2021,01,22,01,03,4.30
2021,01,22,01,04,4.30
2021,01,22,01,05,4.30
2021,01,22,01,06,4.30
2021,01,22,01,07,4.30
2021,01,22,01,08,4.30
2021,01,22,01,09,4.30
2021,01,22,01,10,4.30
2021,01,22,01,11,4.30
2021,01,22,01,12,4.30
2021,01,22,01,13,4.30
2021,01,22,01,14,4.30
2021,01,22,01,15,4.30
2021,01,22,01,16,4.20
2021,01,22,01,17,4.20
2021,01,22,01,18,4.20
2021,01,22,01,19,4.20
2021,01,22,01,20,4.20
2021,01,22,01,21,4.20
2021,01,22,01,22,4.20
2021,01,22,01,23,4.20
2021,01,22,01,24,4.20
2021,01,22,01,25,4.20
2021,01,22,01,26,4.20
2021,01,22,01,27,4.20
2021,01,22,01,28,4.20
2021,01,22,01,29,4.20
2021,01,22,01,30,4.20
2021,01,22,01,31,4.20
2021,01,22,01,32,4.20
2021,01,22,01,33,4.20
2021,01,22,01,34,4.10
2021,01,22,01,35,4.10
2021,01,22,01,36,4.10
2021,01,22,01,37,4.10
2021,01,22,01,38,4.10
2021,01,22,01,39,4.10
2021,01,22,01,40,4.10
2021,01,22,01,41,4.10
2021,01,22,01,42,4.10
2021,01,22,01,43,4.10
2021,01,22,01,44,4.10
2021,01,22,01,45,4.10
2021,01,22,01,46,4.10
2021,01,22,01,47,4.10
2021,01,22,01,48,4.10
2021,01,22,01,49,4.10
2021,01,22,01,50,4.10
2021,01,22,01,51,4.10
2021,01,22,01,52,4.10
2021,01,22,01,53,4.10
2021,01,22,01,54,4.10
2021,01,22,01,55,4.10
2021,01,22,01,56,4.10
2021,01,22,01,57,4.10
2021,01,22,01,58,4.00
2021,01,22,01,59,4.00
2021,01,22,02,00,4.00
2021,01,22,02,01,4.00
2021,01,22,02,02,4.00
2021,01,22,02,03,4.00
2021,01,22,02,04,4.00
2021,01,22,02,05,4.00
2021,01,22,02,06,4.00
2021,01,22,02,07,3.90
2021,01,22,02,08,3.90
2021,01,22,02,09,3.90
2021,01,22,02,10,3.90
2021,01,22,02,11,3.90
2021,01,22,02,12,3.90
2021,01,22,02,13,3.90
2021,01,22,02,14,3.90
2021,01,22,02,15,3.90
2021,01,22,02,16,3.90
2021,01,22,02,17,3.90
2021,01,22,02,18,3.80
2021,01,22,02,19,3.80
2021,01,22,02,20,3.80
2021,01,22,02,21,3.80
2021,01,22,02,22,3.80
2021,01,22,02,23,3.80
2021,01,22,02,24,3.80
2021,01,22,02,25,3.80
2021,01,22,02,26,3.80
2021,01,22,02,27,3.80
2021,01,22,02,28,3.80
2021,01,22,02,29,3.80
2021,01,22,02,30,3.80
2021,01,22,02,31,3.80
2021,01,22,02,32,3.80
2021,01,22,02,33,3.70
2021,01,22,02,34,3.70
2021,01,22,02,35,3.70
2021,01,22,02,36,3.70
2021,01,22,02,37,3.70
2021,01,22,02,38,3.70
2021,01,22,02,39,3.70
2021,01,22,02,40,3.70
2021,01,22,02,41,3.70
2021,01,22,02,42,3.70
2021,01,22,02,43,3.70
2021,01,22,02,44,3.70
2021,01,22,02,45,3.70
2021,01,22,02,46,3.70
2021,01,22,02,47,3.70
2021,01,22,02,48,3.70
2021,01,22,02,49,3.70
2021,01,22,02,50,3.60
2021,01,22,02,51,3.60
2021,01,22,02,52,3.60
2021,01,22,02,53,3.60
2021,01,22,02,54,3.60
2021,01,22,02,55,3.60
2021,01,22,02,56,3.60
2021,01,22,02,57,3.60
2021,01,22,02,58,3.60
2021,01,22,02,59,3.60
2021,01,22,03,00,3.60
2021,01,22,03,01,3.60
2021,01,22,03,02,3.60
2021,01,22,03,03,3.60
2021,01,22,03,04,3.60
2021,01,22,03,05,3.60
2021,01,22,03,06,3.60
2021,01,22,03,07,3.60
2021,01,22,03,08,3.60
2021,01,22,03,09,3.60
2021,01,22,03,10,3.60
2021,01,22,03,11,3.60
2021,01,22,03,12,3.60
2021,01,22,03,13,3.60
2021,01,22,03,14,3.60
2021,01,22,03,15,3.60
2021,01,22,03,16,3.50
2021,01,22,03,17,3.50
2021,01,22,03,18,3.50
2021,01,22,03,19,3.50
2021,01,22,03,20,3.50
2021,01,22,03,21,3.60
2021,01,22,03,22,3.50
2021,01,22,03,23,3.50
2021,01,22,03,24,3.50
2021,01,22,03,25,3.50
2021,01,22,03,26,3.50
2021,01,22,03,27,3.50
2021,01,22,03,28,3.50
2021,01,22,03,29,3.50
2021,01,22,03,30,3.50
2021,01,22,03,31,3.50
2021,01,22,03,32,3.50
2021,01,22,03,33,3.50
2021,01,22,03,34,3.50
2021,01,22,03,35,3.50
2021,01,22,03,36,3.50
2021,01,22,03,37,3.50
2021,01,22,03,38,3.50
2021,01,22,03,39,3.40
2021,01,22,03,40,3.40
2021,01,22,03,41,3.40
2021,01,22,03,42,3.50
2021,01,22,03,43,3.50
2021,01,22,03,44,3.40
2021,01,22,03,45,3.40
2021,01,22,03,46,3.40
2021,01,22,03,47,3.40
2021,01,22,03,48,3.40
2021,01,22,03,49,3.40
2021,01,22,03,50,3.40
2021,01,22,03,51,3.40
2021,01,22,03,52,3.40
2021,01,22,03,53,3.40
2021,01,22,03,54,3.40
2021,01,22,03,55,3.40
2021,01,22,03,56,3.40
2021,01,22,03,57,3.40
2021,01,22,03,58,3.40
2021,01,22,03,59,3.40
2021,01,22,04,00,3.40
2021,01,22,04,01,3.40
2021,01,22,04,02,3.40
2021,01,22,04,03,3.30
2021,01,22,04,04,3.30
2021,01,22,04,05,3.30
2021,01,22,04,06,3.30
2021,01,22,04,07,3.30
2021,01,22,04,08,3.30
2021,01,22,04,09,3.30
2021,01,22,04,10,3.30
2021,01,22,04,11,3.30
2021,01,22,04,12,3.30
2021,01,22,04,13,3.30
2021,01,22,04,14,3.30
2021,01,22,04,15,3.30
2021,01,22,04,16,3.20
2021,01,22,04,17,3.20
2021,01,22,04,18,3.20
2021,01,22,04,19,3.20
2021,01,22,04,20,3.20
2021,01,22,04,21,3.20
2021,01,22,04,22,3.20
2021,01,22,04,23,3.20
2021,01,22,04,24,3.20
2021,01,22,04,25,3.20
2021,01,22,04,26,3.20
2021,01,22,04,27,3.20
2021,01,22,04,28,3.20
2021,01,22,04,29,3.20
2021,01,22,04,30,3.20
2021,01,22,04,31,3.20
2021,01,22,04,32,3.20
2021,01,22,04,33,3.10
2021,01,22,04,34,3.10
2021,01,22,04,35,3.10
2021,01,22,04,36,3.10
2021,01,22,04,37,3.10
2021,01,22,04,38,3.00
2021,01,22,04,39,3.00
2021,01,22,04,40,3.00
2021,01,22,04,41,2.90
2021,01,22,04,42,2.90
2021,01,22,04,43,2.90
2021,01,22,04,44,2.90
2021,01,22,04,45,2.90
2021,01,22,04,46,2.80
2021,01,22,04,47,2.80
2021,01,22,04,48,2.80
2021,01,22,04,49,2.80
2021,01,22,04,50,2.80
2021,01,22,04,51,2.80
2021,01,22,04,52,2.80
2021,01,22,04,53,2.70
2021,01,22,04,54,2.70
2021,01,22,04,55,2.70
2021,01,22,04,56,2.70
2021,01,22,04,57,2.70
2021,01,22,04,58,2.70
2021,01,22,04,59,2.70
2021,01,22,05,00,2.70
2021,01,22,05,01,2.70
2021,01,22,05,02,2.70
2021,01,22,05,03,2.60
2021,01,22,05,04,2.60
2021,01,22,05,05,2.60
2021,01,22,05,06,2.60
2021,01,22,05,07,2.60
2021,01,22,05,08,2.60
2021,01,22,05,09,2.60
2021,01,22,05,10,2.60
2021,01,22,05,11,2.60
2021,01,22,05,12,2.50
2021,01,22,05,13,2.50
2021,01,22,05,14,2.50
2021,01,22,05,15,2.50
2021,01,22,05,16,2.50
2021,01,22,05,17,2.40
2021,01,22,05,18,2.40
2021,01,22,05,19,2.40
2021,01,22,05,20,2.40
2021,01,22,05,21,2.30
2021,01,22,05,22,2.30
2021,01,22,05,23,2.30
2021,01,22,05,24,2.30
2021,01,22,05,25,2.30
2021,01,22,05,26,2.30
2021,01,22,05,27,2.20
2021,01,22,05,28,2.20
2021,01,22,05,29,2.20
2021,01,22,05,30,2.20
2021,01,22,05,31,2.20
2021,01,22,05,32,2.20
2021,01,22,05,33,2.20
2021,01,22,05,34,2.20
2021,01,22,05,35,2.20
2021,01,22,05,36,2.20
2021,01,22,05,37,2.20
2021,01,22,05,38,2.20
2021,01,22,05,39,2.20
2021,01,22,05,40,2.20
2021,01,22,05,41,2.20
2021,01,22,05,42,2.10
2021,01,22,05,43,2.10
2021,01,22,05,44,2.10
2021,01,22,05,45,2.10
2021,01,22,05,46,2.10
2021,01,22,05,47,2.10
2021,01,22,05,48,2.10
2021,01,22,05,49,2.10
2021,01,22,05,50,2.10
2021,01,22,05,51,2.10
2021,01,22,05,52,2.00
2021,01,22,05,53,2.00
2021,01,22,05,54,2.00
2021,01,22,05,55,2.00
2021,01,22,05,56,2.00
2021,01,22,05,57,2.00
2021,01,22,05,58,2.00
2021,01,22,05,59,2.00
2021,01,22,06,00,1.90
2021,01,22,06,01,1.90
2021,01,22,06,02,1.90
2021,01,22,06,03,1.90
2021,01,22,06,04,1.90
2021,01,22,06,05,1.90
2021,01,22,06,06,1.90
2021,01,22,06,07,1.90
2021,01,22,06,08,1.90
2021,01,22,06,09,1.90
2021,01,22,06,10,1.90
2021,01,22,06,11,1.80
2021,01,22,06,12,1.80
2021,01,22,06,13,1.90
2021,01,22,06,14,1.90
2021,01,22,06,15,1.90
2021,01,22,06,16,1.90
2021,01,22,06,17,1.90
2021,01,22,06,18,1.90
2021,01,22,06,19,1.90
2021,01,22,06,20,1.90
2021,01,22,06,21,1.90
2021,01,22,06,22,1.90
2021,01,22,06,23,1.90
2021,01,22,06,24,2.00
2021,01,22,06,25,2.00
2021,01,22,06,26,2.00
2021,01,22,06,27,2.00
2021,01,22,06,28,2.00
2021,01,22,06,29,2.10
2021,01,22,06,30,2.10
2021,01,22,06,31,2.10
2021,01,22,06,32,2.10
2021,01,22,06,33,2.10
2021,01,22,06,34,2.10
2021,01,22,06,35,2.10
2021,01,22,06,36,2.10
2021,01,22,06,37,2.20
2021,01,22,06,38,2.20
2021,01,22,06,39,2.20
2021,01,22,06,40,2.20
2021,01,22,06,41,2.20
2021,01,22,06,42,2.20
2021,01,22,06,43,2.20
2021,01,22,06,44,2.20
2021,01,22,06,45,2.20
2021,01,22,06,46,2.20
2021,01,22,06,47,2.20
2021,01,22,06,48,2.20
2021,01,22,06,49,2.20
2021,01,22,06,50,2.20
2021,01,22,06,51,2.20
2021,01,22,06,52,2.20
2021,01,22,06,53,2.30
2021,01,22,06,54,2.30
2021,01,22,06,55,2.30
2021,01,22,06,56,2.30
2021,01,22,06,57,2.30
2021,01,22,06,58,2.30
2021,01,22,06,59,2.20
2021,01,22,07,00,2.20
2021,01,22,07,01,2.20
2021,01,22,07,02,2.20
2021,01,22,07,03,2.20
2021,01,22,07,04,2.20
2021,01,22,07,05,2.20
2021,01,22,07,06,2.20
2021,01,22,07,07,2.20
2021,01,22,07,08,2.20
2021,01,22,07,09,2.20
2021,01,22,07,10,2.20
2021,01,22,07,11,2.20
2021,01,22,07,12,2.30
2021,01,22,07,13,2.30
2021,01,22,07,14,2.30
2021,01,22,07,15,2.30
2021,01,22,07,16,2.30
2021,01,22,07,17,2.30
2021,01,22,07,18,2.30
2021,01,22,07,19,2.30
2021,01,22,07,20,2.30
2021,01,22,07,21,2.30
2021,01,22,07,22,2.30
2021,01,22,07,23,2.30
2021,01,22,07,24,2.20
2021,01,22,07,25,2.20
2021,01,22,07,26,2.20
2021,01,22,07,27,2.20
2021,01,22,07,28,2.20
2021,01,22,07,29,2.20
2021,01,22,07,30,2.20
2021,01,22,07,31,2.20
2021,01,22,07,32,2.20
2021,01,22,07,33,2.20
2021,01,22,07,34,2.20
2021,01,22,07,35,2.20
2021,01,22,07,36,2.20
2021,01,22,07,37,2.20
2021,01,22,07,38,2.20
2021,01,22,07,39,2.20
2021,01,22,07,40,2.20
2021,01,22,07,41,2.20
2021,01,22,07,42,2.20
2021,01,22,07,43,2.20
2021,01,22,07,44,2.20
2021,01,22,07,45,2.20
2021,01,22,07,46,2.20
2021,01,22,07,47,2.20
2021,01,22,07,48,2.20
2021,01,22,07,49,2.20
2021,01,22,07,50,2.20
2021,01,22,07,51,2.20
2021,01,22,07,52,2.20
2021,01,22,07,53,2.20
2021,01,22,07,54,2.20
2021,01,22,07,55,2.20
2021,01,22,07,56,2.20
2021,01,22,07,57,2.20
2021,01,22,07,58,2.10
2021,01,22,07,59,2.10
2021,01,22,08,00,2.10
2021,01,22,08,01,2.10
2021,01,22,08,02,2.10
2021,01,22,08,03,2.10
2021,01,22,08,04,2.10
2021,01,22,08,05,2.10
2021,01,22,08,06,2.10
2021,01,22,08,07,2.10
2021,01,22,08,08,2.10
2021,01,22,08,09,2.00
2021,01,22,08,10,2.00
2021,01,22,08,11,2.00
2021,01,22,08,12,2.00
2021,01,22,08,13,2.00
2021,01,22,08,14,2.00
2021,01,22,08,15,2.00
2021,01,22,08,16,2.00
2021,01,22,08,17,2.10
2021,01,22,08,18,2.10
2021,01,22,08,19,2.10
2021,01,22,08,20,2.10
2021,01,22,08,21,2.10
2021,01,22,08,22,2.10
2021,01,22,08,23,2.10
2021,01,22,08,24,2.10
2021,01,22,08,25,2.10
2021,01,22,08,26,2.10
2021,01,22,08,27,2.00
2021,01,22,08,28,2.00
2021,01,22,08,29,2.00
2021,01,22,08,30,2.00
2021,01,22,08,31,2.00
2021,01,22,08,32,2.00
2021,01,22,08,33,2.00
2021,01,22,08,34,2.00
2021,01,22,08,35,2.00
2021,01,22,08,36,2.00
2021,01,22,08,37,2.00
2021,01,22,08,38,2.00
2021,01,22,08,39,2.00
2021,01,22,08,40,2.10
2021,01,22,08,41,2.10
2021,01,22,08,42,2.10
2021,01,22,08,43,2.10
2021,01,22,08,44,2.10
2021,01,22,08,45,2.20
2021,01,22,08,46,2.20
2021,01,22,08,47,2.20
2021,01,22,08,48,2.20
2021,01,22,08,49,2.20
2021,01,22,08,50,2.20
2021,01,22,08,51,2.30
2021,01,22,08,52,2.30
2021,01,22,08,53,2.30
2021,01,22,08,54,2.30
2021,01,22,08,55,2.30
2021,01,22,08,56,2.30
2021,01,22,08,57,2.40
2021,01,22,08,58,2.40
2021,01,22,08,59,2.40
2021,01,22,09,00,2.40
2021,01,22,09,01,2.40
2021,01,22,09,02,2.40
2021,01,22,09,03,2.50
2021,01,22,09,04,2.50
2021,01,22,09,05,2.50
2021,01,22,09,06,2.50
2021,01,22,09,07,2.50
2021,01,22,09,08,2.60
2021,01,22,09,09,2.60
2021,01,22,09,10,2.60
2021,01,22,09,11,2.60
2021,01,22,09,12,2.70
2021,01,22,09,13,2.70
2021,01,22,09,14,2.70
2021,01,22,09,15,2.70
2021,01,22,09,16,2.80
2021,01,22,09,17,2.80
2021,01,22,09,18,2.80
2021,01,22,09,19,2.80
2021,01,22,09,20,2.90
2021,01,22,09,21,2.90
2021,01,22,09,22,2.90
2021,01,22,09,23,2.90
2021,01,22,09,24,3.00
2021,01,22,09,25,3.00
2021,01,22,09,26,3.00
2021,01,22,09,27,3.10
2021,01,22,09,28,3.10
2021,01,22,09,29,3.10
2021,01,22,09,30,3.20
2021,01,22,09,31,3.20
2021,01,22,09,32,3.20
2021,01,22,09,33,3.30
2021,01,22,09,34,3.30
2021,01,22,09,35,3.30
2021,01,22,09,36,3.30
2021,01,22,09,37,3.40
2021,01,22,09,38,3.40
2021,01,22,09,39,3.40
2021,01,22,09,40,3.50
2021,01,22,09,41,3.50
2021,01,22,09,42,3.50
2021,01,22,09,43,3.50
2021,01,22,09,44,3.50
2021,01,22,09,45,3.50
2021,01,22,09,46,3.50
2021,01,22,09,47,3.50
2021,01,22,09,48,3.50
2021,01,22,09,49,3.50
2021,01,22,12,04,4.90
2021,01,22,12,05,4.90
2021,01,22,12,06,4.90
2021,01,22,12,07,4.90
2021,01,22,12,08,4.90
2021,01,22,12,09,4.90
2021,01,22,12,10,4.90
2021,01,22,12,11,4.90
2021,01,22,12,12,5.00
2021,01,22,12,13,5.00
2021,01,22,12,14,5.00
2021,01,22,12,15,5.00
2021,01,22,12,16,5.00
2021,01,22,12,17,5.00
2021,01,22,12,18,5.00
2021,01,22,12,19,5.00
2021,01,22,12,20,5.10
2021,01,22,12,21,5.10
2021,01,22,12,22,5.10
2021,01,22,12,23,5.10
2021,01,22,12,24,5.10
2021,01,22,12,25,5.10
2021,01,22,12,26,5.10
2021,01,22,12,27,5.10
2021,01,22,12,28,5.10
2021,01,22,12,29,5.20
2021,01,22,12,30,5.20
2021,01,22,12,31,5.20
2021,01,22,12,32,5.20
2021,01,22,12,33,5.20
2021,01,22,12,34,5.20
2021,01,22,12,35,5.20
2021,01,22,12,36,5.10
2021,01,22,12,37,5.20
2021,01,22,12,38,5.20
2021,01,22,12,39,5.20
2021,01,22,12,40,5.20
2021,01,22,12,41,5.30
2021,01,22,12,42,5.30
2021,01,22,12,43,5.30
2021,01,22,12,44,5.30
2021,01,22,12,45,5.30
2021,01,22,12,46,5.40
2021,01,22,12,47,5.40
2021,01,22,12,48,5.40
2021,01,22,12,49,5.50
2021,01,22,12,50,5.50
2021,01,22,12,51,5.50
2021,01,22,12,52,5.50
2021,01,22,12,53,5.50
2021,01,22,12,54,5.50
2021,01,22,12,55,5.50
2021,01,22,12,56,5.50
2021,01,22,12,57,5.50
2021,01,22,12,58,5.50
2021,01,22,12,59,5.50
2021,01,22,13,00,5.50
2021,01,22,13,01,5.60
2021,01,22,13,02,5.60
2021,01,22,13,03,5.60
2021,01,22,13,04,5.60
2021,01,22,13,05,5.70
2021,01,22,13,06,5.70
2021,01,22,13,07,5.70
2021,01,22,13,08,5.70
2021,01,22,13,09,5.70
2021,01,22,13,10,5.70
2021,01,22,13,11,5.70
2021,01,22,13,12,5.80
2021,01,22,13,13,5.80
2021,01,22,13,14,5.80
2021,01,22,13,15,5.80
2021,01,22,13,16,5.90
2021,01,22,13,17,5.90
2021,01,22,13,18,5.90
2021,01,22,13,19,6.00
2021,01,22,13,20,6.00
2021,01,22,13,21,6.00
2021,01,22,13,22,6.00
2021,01,22,13,23,6.00
2021,01,22,13,24,6.00
2021,01,22,13,25,6.10
2021,01,22,13,26,6.10
2021,01,22,13,27,6.10
2021,01,22,13,28,6.20
2021,01,22,13,29,6.20
2021,01,22,13,30,6.20
2021,01,22,13,31,6.20
2021,01,22,13,32,6.20
2021,01,22,13,33,6.20
2021,01,22,13,34,6.10
2021,01,22,13,35,6.10
2021,01,22,13,36,6.10
2021,01,22,13,37,6.10
2021,01,22,13,38,6.10
2021,01,22,13,39,6.10
2021,01,22,13,40,6.10
2021,01,22,13,41,6.10
2021,01,22,13,42,6.10
2021,01,22,13,43,6.10
2021,01,22,13,44,6.10
2021,01,22,13,45,6.10
2021,01,22,13,46,6.10
2021,01,22,13,47,6.10
2021,01,22,13,48,6.10
2021,01,22,13,49,6.10
2021,01,22,13,50,6.20
2021,01,22,13,51,6.20
2021,01,22,13,52,6.30
2021,01,22,13,53,6.30
2021,01,22,13,54,6.30
2021,01,22,13,55,6.30
2021,01,22,13,56,6.30
2021,01,22,13,57,6.30
2021,01,22,13,58,6.30
2021,01,22,13,59,6.30
2021,01,22,14,00,6.30
2021,01,22,14,01,6.30
2021,01,22,14,02,6.30
2021,01,22,14,03,6.40
2021,01,22,14,04,6.40
2021,01,22,14,05,6.40
2021,01,22,14,06,6.40
2021,01,22,14,07,6.40
2021,01,22,14,08,6.40
2021,01,22,14,09,6.40
2021,01,22,14,10,6.40
2021,01,22,14,11,6.40
2021,01,22,14,12,6.40
2021,01,22,14,13,6.40
2021,01,22,14,14,6.40
2021,01,22,14,15,6.40
2021,01,22,14,16,6.40
2021,01,22,14,17,6.40
2021,01,22,14,18,6.40
2021,01,22,14,19,6.40
2021,01,22,14,20,6.40
2021,01,22,14,21,6.40
2021,01,22,14,22,6.40
2021,01,22,14,23,6.50
2021,01,22,14,24,6.50
2021,01,22,14,25,6.50
2021,01,22,14,26,6.40
2021,01,22,14,27,6.40
2021,01,22,14,28,6.40
2021,01,22,14,29,6.40
2021,01,22,14,30,6.40
2021,01,22,14,31,6.40
2021,01,22,14,32,6.40
2021,01,22,14,33,6.40
2021,01,22,14,34,6.40
2021,01,22,14,35,6.40
2021,01,22,14,36,6.40
2021,01,22,14,37,6.40
2021,01,22,14,38,6.40
2021,01,22,14,39,6.40
2021,01,22,14,40,6.40
2021,01,22,14,41,6.50
2021,01,22,14,42,6.50
2021,01,22,14,43,6.50
2021,01,22,14,44,6.50
2021,01,22,14,45,6.40
2021,01,22,14,46,6.40
2021,01,22,14,47,6.40
2021,01,22,14,48,6.40
2021,01,22,14,49,6.40
2021,01,22,14,50,6.30
2021,01,22,14,51,6.30
2021,01,22,14,52,6.30
2021,01,22,14,53,6.30
2021,01,22,14,54,6.30
2021,01,22,14,55,6.30
2021,01,22,14,56,6.30
2021,01,22,14,57,6.30
2021,01,22,14,58,6.30
2021,01,22,14,59,6.30
2021,01,22,15,00,6.40
2021,01,22,15,01,6.40
2021,01,22,15,02,6.40
2021,01,22,15,03,6.50
2021,01,22,15,04,6.50
2021,01,22,15,05,6.60
2021,01,22,15,06,6.60
2021,01,22,15,07,6.60
2021,01,22,15,08,6.60
2021,01,22,15,09,6.60
2021,01,22,15,10,6.60
2021,01,22,15,11,6.50
2021,01,22,15,12,6.50
2021,01,22,15,13,6.50
2021,01,22,15,14,6.50
2021,01,22,15,15,6.50
2021,01,22,15,16,6.50
2021,01,22,15,17,6.40
2021,01,22,15,18,6.50
2021,01,22,15,19,6.50
2021,01,22,15,20,6.50
2021,01,22,15,21,6.60
2021,01,22,15,22,6.60
2021,01,22,15,23,6.60
2021,01,22,15,24,6.60
2021,01,22,15,25,6.60
2021,01,22,15,26,6.60
2021,01,22,15,27,6.60
2021,01,22,15,28,6.60
2021,01,22,15,29,6.60
2021,01,22,15,30,6.60
2021,01,22,15,31,6.60
2021,01,22,15,32,6.60
2021,01,22,15,33,6.60
2021,01,22,15,34,6.60
2021,01,22,15,35,6.60
2021,01,22,15,36,6.60
2021,01,22,15,37,6.50
2021,01,22,15,38,6.50
2021,01,22,15,39,6.50
2021,01,22,15,40,6.50
2021,01,22,15,41,6.40
2021,01,22,15,42,6.40
2021,01,22,15,43,6.40
2021,01,22,15,44,6.40
2021,01,22,15,45,6.40
2021,01,22,15,46,6.40
2021,01,22,15,47,6.40
2021,01,22,15,48,6.40
2021,01,22,15,49,6.40
2021,01,22,15,50,6.40
2021,01,22,15,51,6.40
2021,01,22,15,52,6.40
2021,01,22,15,53,6.40
2021,01,22,15,54,6.40
2021,01,22,15,55,6.40
2021,01,22,15,56,6.40
2021,01,22,15,57,6.30
2021,01,22,15,58,6.40
2021,01,22,15,59,6.30
2021,01,22,16,00,6.40
2021,01,22,16,01,6.40
2021,01,22,16,02,6.40
2021,01,22,16,03,6.40
2021,01,22,16,04,6.40
2021,01,22,16,05,6.40
2021,01,22,16,06,6.40
2021,01,22,16,07,6.40
2021,01,22,16,08,6.40
2021,01,22,16,09,6.40
2021,01,22,16,10,6.40
2021,01,22,16,11,6.40
2021,01,22,16,12,6.40
2021,01,22,16,13,6.40
2021,01,22,16,14,6.40
2021,01,22,16,15,6.40
2021,01,22,16,16,6.40
2021,01,22,16,17,6.40
2021,01,22,16,18,6.40
2021,01,22,16,19,6.40
2021,01,22,16,20,6.40
2021,01,22,16,21,6.40
2021,01,22,16,22,6.30
2021,01,22,16,23,6.30
2021,01,22,16,24,6.30
2021,01,22,16,25,6.30
2021,01,22,16,26,6.30
2021,01,22,16,27,6.20
2021,01,22,16,28,6.20
2021,01,22,16,29,6.20
2021,01,22,16,30,6.10
2021,01,22,16,31,6.10
2021,01,22,16,32,6.10
2021,01,22,16,33,6.10
2021,01,22,16,34,6.00
2021,01,22,16,35,6.00
2021,01,22,16,36,6.00
2021,01,22,16,37,6.00
2021,01,22,16,38,5.90
2021,01,22,16,39,5.90
2021,01,22,16,40,5.90
2021,01,22,16,41,5.90
2021,01,22,16,42,5.90
2021,01,22,16,43,5.90
2021,01,22,16,44,5.80
2021,01,22,16,45,5.80
2021,01,22,16,46,5.80
2021,01,22,16,47,5.80
2021,01,22,16,48,5.80
2021,01,22,16,49,5.80
2021,01,22,16,50,5.80
2021,01,22,16,51,5.80
2021,01,22,16,52,5.70
2021,01,22,16,53,5.70
2021,01,22,16,54,5.70
2021,01,22,16,55,5.70
2021,01,22,16,56,5.70
2021,01,22,16,57,5.70
2021,01,22,16,58,5.60
2021,01,22,16,59,5.60
2021,01,22,17,00,5.60
2021,01,22,17,01,5.60
2021,01,22,17,02,5.60
2021,01,22,17,03,5.60
2021,01,22,17,04,5.50
2021,01,22,17,05,5.50
2021,01,22,17,06,5.50
2021,01,22,17,07,5.50
2021,01,22,17,08,5.40
2021,01,22,17,09,5.40
2021,01,22,17,10,5.40
2021,01,22,17,11,5.40
2021,01,22,17,12,5.30
2021,01,22,17,13,5.30
2021,01,22,17,14,5.30
2021,01,22,17,15,5.30
2021,01,22,17,16,5.30
2021,01,22,17,17,5.20
2021,01,22,17,18,5.20
2021,01,22,17,19,5.20
2021,01,22,17,20,5.20
2021,01,22,17,21,5.10
2021,01,22,17,22,5.10
2021,01,22,17,23,5.10
2021,01,22,17,24,5.10
2021,01,22,17,25,5.10
2021,01,22,17,26,5.00
2021,01,22,17,27,5.00
2021,01,22,17,28,5.00
2021,01,22,17,29,5.00
2021,01,22,17,30,4.90
2021,01,22,17,31,4.90
2021,01,22,17,32,4.90
2021,01,22,17,33,4.90
2021,01,22,17,34,4.80
2021,01,22,17,35,4.80
2021,01,22,17,36,4.80
2021,01,22,17,37,4.80
2021,01,22,17,38,4.80
2021,01,22,17,39,4.70
2021,01,22,17,40,4.70
2021,01,22,17,41,4.70
2021,01,22,17,42,4.70
2021,01,22,17,43,4.70
2021,01,22,17,44,4.70
2021,01,22,17,45,4.60
2021,01,22,17,46,4.60
2021,01,22,17,47,4.60
2021,01,22,17,48,4.60
2021,01,22,17,49,4.50
2021,01,22,17,50,4.50
2021,01,22,17,51,4.50
2021,01,22,17,52,4.40
2021,01,22,17,53,4.40
2021,01,22,17,54,4.40
2021,01,22,17,55,4.40
2021,01,22,17,56,4.40
2021,01,22,17,57,4.40
2021,01,22,17,58,4.30
2021,01,22,17,59,4.30
2021,01,22,18,00,4.30
2021,01,22,18,01,4.30
2021,01,22,18,02,4.30
2021,01,22,18,03,4.30
2021,01,22,18,04,4.30
2021,01,22,18,05,4.30
2021,01,22,18,06,4.20
2021,01,22,18,07,4.20
2021,01,22,18,08,4.20
2021,01,22,18,09,4.20
2021,01,22,18,10,4.20
2021,01,22,18,11,4.20
2021,01,22,18,12,4.10
2021,01,22,18,13,4.10
2021,01,22,18,14,4.10
2021,01,22,18,15,4.10
2021,01,22,18,16,4.10
2021,01,22,18,17,4.00
2021,01,22,18,18,4.00
2021,01,22,18,19,4.00
2021,01,22,18,20,4.00
2021,01,22,18,21,3.90
2021,01,22,18,22,3.90
2021,01,22,18,23,3.90
2021,01,22,18,24,3.90
2021,01,22,18,25,3.90
2021,01,22,18,26,3.80
2021,01,22,18,27,3.80
2021,01,22,18,28,3.80
2021,01,22,18,29,3.80
2021,01,22,18,30,3.80
2021,01,22,18,31,3.80
2021,01,22,18,32,3.80
2021,01,22,18,33,3.70
2021,01,22,18,34,3.70
2021,01,22,18,35,3.70
2021,01,22,18,36,3.70
2021,01,22,18,37,3.70
2021,01,22,18,38,3.70
2021,01,22,18,39,3.60
2021,01,22,18,40,3.60
2021,01,22,18,41,3.60
2021,01,22,18,42,3.60
2021,01,22,18,43,3.50
2021,01,22,18,44,3.50
2021,01,22,18,45,3.50
2021,01,22,18,46,3.50
2021,01,22,18,47,3.50
2021,01,22,18,48,3.40
2021,01,22,18,49,3.40
2021,01,22,18,50,3.40
2021,01,22,18,51,3.40
2021,01,22,18,52,3.40
2021,01,22,18,53,3.40
2021,01,22,18,54,3.40
2021,01,22,18,55,3.30
2021,01,22,18,56,3.30
2021,01,22,18,57,3.30
2021,01,22,18,58,3.30
2021,01,22,18,59,3.30
2021,01,22,19,00,3.30
2021,01,22,19,01,3.30
2021,01,22,19,02,3.30
2021,01,22,19,03,3.30
2021,01,22,19,04,3.30
2021,01,22,19,05,3.30
2021,01,22,19,06,3.30
2021,01,22,19,07,3.30
2021,01,22,19,08,3.30
2021,01,22,19,09,3.30
2021,01,22,19,10,3.20
2021,01,22,19,11,3.20
2021,01,22,19,12,3.20
2021,01,22,19,13,3.20
2021,01,22,19,14,3.20
2021,01,22,19,15,3.20
2021,01,22,19,16,3.10
2021,01,22,19,17,3.10
2021,01,22,19,18,3.10
2021,01,22,19,19,3.10
2021,01,22,19,20,3.10
2021,01,22,19,21,3.00
2021,01,22,19,22,3.00
2021,01,22,19,23,3.00
2021,01,22,19,24,3.00
2021,01,22,19,25,3.00
2021,01,22,19,26,2.90
2021,01,22,19,27,2.90
2021,01,22,19,28,2.90
2021,01,22,19,29,2.90
2021,01,22,19,30,2.90
2021,01,22,19,31,2.90
2021,01,22,19,32,2.90
2021,01,22,19,33,2.90
2021,01,22,19,34,2.90
2021,01,22,19,35,2.80
2021,01,22,19,36,2.80
2021,01,22,19,37,2.80
2021,01,22,19,38,2.80
2021,01,22,19,39,2.80
2021,01,22,19,40,2.80
2021,01,22,19,41,2.80
2021,01,22,19,42,2.80
2021,01,22,19,43,2.70
2021,01,22,19,44,2.70
2021,01,22,19,45,2.70
2021,01,22,19,46,2.70
2021,01,22,19,47,2.70
2021,01,22,19,48,2.60
2021,01,22,19,49,2.60
2021,01,22,19,50,2.60
2021,01,22,19,51,2.60
2021,01,22,19,52,2.60
2021,01,22,19,53,2.60
2021,01,22,19,54,2.60
2021,01,22,19,55,2.60
2021,01,22,19,56,2.60
2021,01,22,19,57,2.60
2021,01,22,19,58,2.60
2021,01,22,19,59,2.60
2021,01,22,20,00,2.50
2021,01,22,20,01,2.50
2021,01,22,20,02,2.50
2021,01,22,20,03,2.50
2021,01,22,20,04,2.50
2021,01,22,20,05,2.40
2021,01,22,20,06,2.40
2021,01,22,20,07,2.40
2021,01,22,20,08,2.40
2021,01,22,20,09,2.40
2021,01,22,20,10,2.40
2021,01,22,20,11,2.40
2021,01,22,20,12,2.40
2021,01,22,20,13,2.40
2021,01,22,20,14,2.40
2021,01,22,20,15,2.40
2021,01,22,20,16,2.40
2021,01,22,20,17,2.40
2021,01,22,20,18,2.40
2021,01,22,20,19,2.40
2021,01,22,20,20,2.40